Time,TemperatureF,DewpointF,PressureIn,WindDirection,WindDirectionDegrees,WindSpeedMPH,WindSpeedGustMPH,Humidity,HourlyPrecipIn,Conditions,Clouds,dailyrainin,SoftwareType,DateUTC
2013-03-04 00:00:00,33.1,26.0,29.52,WSW,252,1.0,1.0,75,0.00,,,0.00,Wunderground v.1.15,2013-03-04 05:00:00,
2013-03-04 00:02:00,33.0,25.9,29.52,SW,222,1.0,1.0,75,0.00,,,0.00,Wunderground v.1.15,2013-03-04 05:02:00,
2013-03-04 00:03:00,33.0,25.9,29.52,NE,42,1.0,3.0,75,0.00,,,0.00,Wunderground v.1.15,2013-03-04 05:03:00,
2013-03-04 00:07:00,33.0,25.9,29.52,West,262,1.0,4.0,75,0.00,,,0.00,Wunderground v.1.15,2013-03-04 05:07:00,
2013-03-04 00:12:00,32.9,25.8,29.52,SW,225,1.0,2.0,75,0.00,,,0.00,Wunderground v.1.15,2013-03-04 05:12:00,
2013-03-04 00:18:00,32.9,25.8,29.52,WNW,290,2.0,3.0,75,0.00,,,0.00,Wunderground v.1.15,2013-03-04 05:18:00,
2013-03-04 00:23:00,32.9,25.8,29.52,SSW,212,1.0,2.0,75,0.00,,,0.00,Wunderground v.1.15,2013-03-04 05:23:00,
2013-03-04 00:29:00,32.9,25.8,29.51,SE,145,1.0,2.0,75,0.00,,,0.00,Wunderground v.1.15,2013-03-04 05:29:00,
2013-03-04 00:35:00,32.9,25.8,29.52,SW,214,2.0,5.0,75,0.00,,,0.00,Wunderground v.1.15,2013-03-04 05:35:00,
2013-03-04 00:40:00,32.9,25.8,29.52,West,259,2.0,3.0,75,0.00,,,0.00,Wunderground v.1.15,2013-03-04 05:40:00,
2013-03-04 00:46:00,32.8,25.7,29.52,SW,223,1.0,3.0,75,0.00,,,0.00,Wunderground v.1.15,2013-03-04 05:46:00,
2013-03-04 00:51:00,32.8,25.7,29.52,WSW,249,1.0,3.0,75,0.00,,,0.00,Wunderground v.1.15,2013-03-04 05:51:00,
2013-03-04 00:57:00,32.8,25.7,29.52,NNE,28,1.0,3.0,75,0.00,,,0.00,Wunderground v.1.15,2013-03-04 05:57:00,
2013-03-04 01:03:00,32.8,25.4,29.52,WNW,300,2.0,5.0,74,0.00,,,0.00,Wunderground v.1.15,2013-03-04 06:03:00,
2013-03-04 01:08:00,32.8,25.4,29.52,NNE,32,2.0,5.0,74,0.00,,,0.00,Wunderground v.1.15,2013-03-04 06:08:00,
2013-03-04 01:14:00,32.7,25.3,29.53,WSW,248,1.0,2.0,74,0.00,,,0.00,Wunderground v.1.15,2013-03-04 06:14:00,
2013-03-04 01:19:00,32.7,25.3,29.52,ESE,118,2.0,2.0,74,0.00,,,0.00,Wunderground v.1.15,2013-03-04 06:19:00,
2013-03-04 01:24:00,32.6,25.2,29.53,West,266,1.0,2.0,74,0.00,,,0.00,Wunderground v.1.15,2013-03-04 06:24:00,
2013-03-04 01:29:00,32.6,25.2,29.52,South,170,1.0,3.0,74,0.00,,,0.00,Wunderground v.1.15,2013-03-04 06:29:00,
2013-03-04 01:35:00,32.5,25.5,29.52,NE,34,1.0,1.0,75,0.00,,,0.00,Wunderground v.1.15,2013-03-04 06:35:00,
2013-03-04 01:40:00,32.5,25.1,29.52,SSW,204,1.0,7.0,74,0.00,,,0.00,Wunderground v.1.15,2013-03-04 06:40:00,
2013-03-04 01:46:00,32.4,25.0,29.52,ESE,108,1.0,7.0,74,0.00,,,0.00,Wunderground v.1.15,2013-03-04 06:46:00,
2013-03-04 01:51:00,32.4,25.0,29.52,SW,230,2.0,4.0,74,0.00,,,0.00,Wunderground v.1.15,2013-03-04 06:51:00,
2013-03-04 01:56:00,32.4,25.0,29.52,NNE,20,2.0,4.0,74,0.00,,,0.00,Wunderground v.1.15,2013-03-04 06:56:00,
2013-03-04 02:01:00,32.4,25.0,29.52,NW,311,2.0,2.0,74,0.00,,,0.00,Wunderground v.1.15,2013-03-04 07:01:00,
2013-03-04 02:07:00,32.4,25.0,29.52,NNE,22,1.0,2.0,74,0.00,,,0.00,Wunderground v.1.15,2013-03-04 07:07:00,
2013-03-04 02:13:00,32.4,24.7,29.52,ENE,64,1.0,4.0,73,0.00,,,0.00,Wunderground v.1.15,2013-03-04 07:13:00,
2013-03-04 02:19:00,32.4,25.0,29.52,NNW,330,1.0,4.0,74,0.00,,,0.00,Wunderground v.1.15,2013-03-04 07:19:00,
2013-03-04 02:25:00,32.3,24.9,29.52,East,90,1.0,2.0,74,0.00,,,0.00,Wunderground v.1.15,2013-03-04 07:25:00,
2013-03-04 02:30:00,32.3,24.9,29.52,West,273,1.0,1.0,74,0.00,,,0.00,Wunderground v.1.15,2013-03-04 07:30:00,
2013-03-04 02:35:00,32.2,24.8,29.52,NNW,341,1.0,1.0,74,0.00,,,0.00,Wunderground v.1.15,2013-03-04 07:35:00,
2013-03-04 02:41:00,32.3,24.9,29.51,West,270,1.0,1.0,74,0.00,,,0.00,Wunderground v.1.15,2013-03-04 07:41:00,
2013-03-04 02:46:00,32.2,24.8,29.51,NW,305,1.0,2.0,74,0.00,,,0.00,Wunderground v.1.15,2013-03-04 07:46:00,
2013-03-04 02:52:00,32.2,24.8,29.51,ENE,67,1.0,2.0,74,0.00,,,0.00,Wunderground v.1.15,2013-03-04 07:52:00,
2013-03-04 02:57:00,32.2,24.8,29.51,NNE,14,1.0,2.0,74,0.00,,,0.00,Wunderground v.1.15,2013-03-04 07:57:00,
2013-03-04 03:02:00,32.2,24.8,29.51,ESE,121,1.0,3.0,74,0.00,,,0.00,Wunderground v.1.15,2013-03-04 08:02:00,
2013-03-04 03:08:00,32.2,24.8,29.51,ESE,104,1.0,3.0,74,0.00,,,0.00,Wunderground v.1.15,2013-03-04 08:08:00,
2013-03-04 03:13:00,32.2,24.8,29.51,NW,304,1.0,1.0,74,0.00,,,0.00,Wunderground v.1.15,2013-03-04 08:13:00,
2013-03-04 03:19:00,32.1,24.7,29.51,SW,235,1.0,1.0,74,0.00,,,0.00,Wunderground v.1.15,2013-03-04 08:19:00,
2013-03-04 03:25:00,32.1,24.7,29.51,NW,311,0.0,1.0,74,0.00,,,0.00,Wunderground v.1.15,2013-03-04 08:25:00,
2013-03-04 03:31:00,32.1,24.7,29.52,West,264,0.0,0.0,74,0.00,,,0.00,Wunderground v.1.15,2013-03-04 08:31:00,
2013-03-04 03:36:00,32.2,24.8,29.52,West,264,1.0,3.0,74,0.00,,,0.00,Wunderground v.1.15,2013-03-04 08:36:00,
2013-03-04 03:42:00,32.1,24.7,29.52,SW,224,1.0,1.0,74,0.00,,,0.00,Wunderground v.1.15,2013-03-04 08:42:00,
2013-03-04 03:48:00,32.0,25.0,29.52,NNE,22,0.0,1.0,75,0.00,,,0.00,Wunderground v.1.15,2013-03-04 08:48:00,
2013-03-04 03:53:00,32.0,25.0,29.52,West,264,0.0,1.0,75,0.00,,,0.00,Wunderground v.1.15,2013-03-04 08:53:00,
2013-03-04 03:58:00,32.0,25.0,29.52,SE,139,0.0,1.0,75,0.00,,,0.00,Wunderground v.1.15,2013-03-04 08:58:00,
2013-03-04 04:04:00,31.9,24.9,29.52,SSW,210,0.0,2.0,75,0.00,,,0.00,Wunderground v.1.15,2013-03-04 09:04:00,
2013-03-04 04:10:00,31.9,24.9,29.52,West,274,1.0,1.0,75,0.00,,,0.00,Wunderground v.1.15,2013-03-04 09:10:00,
2013-03-04 04:16:00,31.8,24.8,29.52,WSW,252,0.0,2.0,75,0.00,,,0.00,Wunderground v.1.15,2013-03-04 09:16:00,
2013-03-04 04:22:00,31.8,24.8,29.52,NNE,22,0.0,0.0,75,0.00,,,0.00,Wunderground v.1.15,2013-03-04 09:22:00,
2013-03-04 04:27:00,31.8,25.1,29.52,West,260,0.0,1.0,76,0.00,,,0.00,Wunderground v.1.15,2013-03-04 09:27:00,
2013-03-04 04:33:00,31.6,24.9,29.51,SW,229,0.0,1.0,76,0.00,,,0.00,Wunderground v.1.15,2013-03-04 09:33:00,
2013-03-04 04:38:00,31.6,24.9,29.52,East,88,0.0,2.0,76,0.00,,,0.00,Wunderground v.1.15,2013-03-04 09:38:00,
2013-03-04 04:44:00,31.6,24.9,29.51,WSW,257,0.0,2.0,76,0.00,,,0.00,Wunderground v.1.15,2013-03-04 09:44:00,
2013-03-04 04:50:00,31.5,24.8,29.52,WSW,255,0.0,2.0,76,0.00,,,0.00,Wunderground v.1.15,2013-03-04 09:50:00,
2013-03-04 04:56:00,31.5,24.8,29.52,South,183,0.0,2.0,76,0.00,,,0.00,Wunderground v.1.15,2013-03-04 09:56:00,
2013-03-04 05:01:00,31.4,24.7,29.52,SW,215,0.0,1.0,76,0.00,,,0.00,Wunderground v.1.15,2013-03-04 10:01:00,
2013-03-04 05:07:00,31.4,24.7,29.52,WSW,249,0.0,1.0,76,0.00,,,0.00,Wunderground v.1.15,2013-03-04 10:07:00,
2013-03-04 05:13:00,31.3,24.6,29.52,SSW,210,0.0,1.0,76,0.00,,,0.00,Wunderground v.1.15,2013-03-04 10:13:00,
2013-03-04 05:18:00,31.3,24.6,29.52,NE,36,1.0,2.0,76,0.00,,,0.00,Wunderground v.1.15,2013-03-04 10:18:00,
2013-03-04 05:23:00,31.3,24.3,29.52,SE,145,1.0,1.0,75,0.00,,,0.00,Wunderground v.1.15,2013-03-04 10:23:00,
2013-03-04 05:29:00,31.4,24.1,29.51,West,274,1.0,4.0,74,0.00,,,0.00,Wunderground v.1.15,2013-03-04 10:29:00,
2013-03-04 05:35:00,31.5,24.2,29.52,NW,315,1.0,2.0,74,0.00,,,0.00,Wunderground v.1.15,2013-03-04 10:35:00,
2013-03-04 05:40:00,31.4,24.1,29.52,WSW,250,1.0,1.0,74,0.00,,,0.00,Wunderground v.1.15,2013-03-04 10:40:00,
2013-03-04 05:46:00,31.4,24.1,29.52,West,259,0.0,1.0,74,0.00,,,0.00,Wunderground v.1.15,2013-03-04 10:46:00,
2013-03-04 05:51:00,31.4,24.4,29.52,East,82,1.0,1.0,75,0.00,,,0.00,Wunderground v.1.15,2013-03-04 10:51:00,
2013-03-04 05:56:00,31.4,24.4,29.52,NNW,340,1.0,2.0,75,0.00,,,0.00,Wunderground v.1.15,2013-03-04 10:56:00,
2013-03-04 06:01:00,31.3,24.3,29.52,NE,40,1.0,1.0,75,0.00,,,0.00,Wunderground v.1.15,2013-03-04 11:01:00,
2013-03-04 06:07:00,31.3,24.3,29.52,WSW,253,0.0,1.0,75,0.00,,,0.00,Wunderground v.1.15,2013-03-04 11:07:00,
2013-03-04 06:13:00,31.3,24.3,29.52,NNE,22,0.0,0.0,75,0.00,,,0.00,Wunderground v.1.15,2013-03-04 11:13:00,
2013-03-04 06:18:00,31.3,24.0,29.52,SW,236,0.0,2.0,74,0.00,,,0.00,Wunderground v.1.15,2013-03-04 11:18:00,
2013-03-04 06:24:00,31.3,24.3,29.52,SW,231,0.0,1.0,75,0.00,,,0.00,Wunderground v.1.15,2013-03-04 11:24:00,
2013-03-04 06:30:00,31.4,24.4,29.52,WSW,246,0.0,0.0,75,0.00,,,0.00,Wunderground v.1.15,2013-03-04 11:30:00,
2013-03-04 06:36:00,31.4,24.4,29.52,NE,44,0.0,2.0,75,0.00,,,0.00,Wunderground v.1.15,2013-03-04 11:36:00,
2013-03-04 06:41:00,31.4,24.1,29.52,NNW,341,0.0,0.0,74,0.00,,,0.00,Wunderground v.1.15,2013-03-04 11:41:00,
2013-03-04 06:46:00,31.4,24.1,29.52,NNE,23,0.0,2.0,74,0.00,,,0.00,Wunderground v.1.15,2013-03-04 11:46:00,
2013-03-04 06:51:00,31.5,24.2,29.52,NE,48,0.0,1.0,74,0.00,,,0.00,Wunderground v.1.15,2013-03-04 11:51:00,
2013-03-04 06:57:00,31.6,23.9,29.52,ESE,108,1.0,3.0,73,0.00,,,0.00,Wunderground v.1.15,2013-03-04 11:57:00,
2013-03-04 07:02:00,31.7,24.0,29.52,West,277,1.0,1.0,73,0.00,,,0.00,Wunderground v.1.15,2013-03-04 12:02:00,
2013-03-04 07:07:00,31.8,24.1,29.52,NNE,30,1.0,4.0,73,0.00,,,0.00,Wunderground v.1.15,2013-03-04 12:07:00,
2013-03-04 07:12:00,31.9,23.9,29.52,WSW,257,0.0,1.0,72,0.00,,,0.00,Wunderground v.1.15,2013-03-04 12:12:00,
2013-03-04 07:18:00,32.0,24.0,29.53,WNW,298,1.0,5.0,72,0.00,,,0.00,Wunderground v.1.15,2013-03-04 12:18:00,
2013-03-04 07:24:00,32.1,24.1,29.53,NE,36,1.0,2.0,72,0.00,,,0.00,Wunderground v.1.15,2013-03-04 12:24:00,
2013-03-04 07:29:00,32.3,23.9,29.53,South,190,1.0,2.0,71,0.00,,,0.00,Wunderground v.1.15,2013-03-04 12:29:00,
2013-03-04 07:34:00,32.4,24.0,29.53,NE,49,1.0,3.0,71,0.00,,,0.00,Wunderground v.1.15,2013-03-04 12:34:00,
2013-03-04 07:40:00,32.4,24.0,29.53,North,351,1.0,4.0,71,0.00,,,0.00,Wunderground v.1.15,2013-03-04 12:40:00,
2013-03-04 07:45:00,32.4,24.4,29.53,WSW,250,2.0,4.0,72,0.00,,,0.00,Wunderground v.1.15,2013-03-04 12:45:00,
2013-03-04 07:50:00,32.4,24.7,29.53,WSW,251,2.0,3.0,73,0.00,,,0.00,Wunderground v.1.15,2013-03-04 12:50:00,
2013-03-04 07:56:00,32.3,24.9,29.53,WSW,243,2.0,3.0,74,0.00,,,0.00,Wunderground v.1.15,2013-03-04 12:56:00,
2013-03-04 08:01:00,32.1,25.4,29.53,ENE,63,2.0,2.0,76,0.00,,,0.00,Wunderground v.1.15,2013-03-04 13:01:00,
2013-03-04 08:07:00,32.0,25.6,29.53,NNE,13,2.0,3.0,77,0.00,,,0.00,Wunderground v.1.15,2013-03-04 13:07:00,
2013-03-04 08:12:00,31.8,26.0,29.53,North,8,1.0,2.0,79,0.00,,,0.00,Wunderground v.1.15,2013-03-04 13:12:00,
2013-03-04 08:18:00,31.8,26.3,29.53,SW,218,1.0,2.0,80,0.00,,,0.00,Wunderground v.1.15,2013-03-04 13:18:00,
2013-03-04 08:23:00,31.8,26.6,29.53,WSW,238,0.0,2.0,81,0.00,,,0.00,Wunderground v.1.15,2013-03-04 13:23:00,
2013-03-04 08:28:00,31.8,26.9,29.53,SW,233,0.0,2.0,82,0.00,,,0.00,Wunderground v.1.15,2013-03-04 13:28:00,
2013-03-04 08:34:00,31.8,27.2,29.53,SW,224,1.0,4.0,83,0.00,,,0.00,Wunderground v.1.15,2013-03-04 13:34:00,
2013-03-04 08:40:00,31.8,27.2,29.53,West,267,1.0,1.0,83,0.00,,,0.00,Wunderground v.1.15,2013-03-04 13:40:00,
2013-03-04 08:45:00,32.0,27.1,29.53,West,270,1.0,2.0,82,0.00,,,0.00,Wunderground v.1.15,2013-03-04 13:45:00,
2013-03-04 08:51:00,32.3,27.4,29.53,WNW,297,1.0,2.0,82,0.00,,,0.00,Wunderground v.1.15,2013-03-04 13:51:00,
2013-03-04 08:56:00,32.3,27.4,29.53,SW,233,1.0,3.0,82,0.00,,,0.00,Wunderground v.1.15,2013-03-04 13:56:00,
2013-03-04 09:02:00,32.3,27.4,29.53,SE,124,1.0,1.0,82,0.00,,,0.00,Wunderground v.1.15,2013-03-04 14:02:00,
2013-03-04 09:07:00,32.2,27.6,29.53,WSW,240,1.0,2.0,83,0.00,,,0.00,Wunderground v.1.15,2013-03-04 14:07:00,
2013-03-04 09:12:00,32.0,27.7,29.53,WSW,257,1.0,5.0,84,0.00,,,0.00,Wunderground v.1.15,2013-03-04 14:12:00,
2013-03-04 09:18:00,32.0,28.0,29.52,WSW,240,1.0,5.0,85,0.00,,,0.00,Wunderground v.1.15,2013-03-04 14:18:00,
2013-03-04 09:24:00,32.1,28.1,29.53,West,274,1.0,2.0,85,0.00,,,0.00,Wunderground v.1.15,2013-03-04 14:24:00,
2013-03-04 09:29:00,32.2,28.2,29.53,NE,49,1.0,3.0,85,0.00,,,0.00,Wunderground v.1.15,2013-03-04 14:29:00,
2013-03-04 09:35:00,32.1,28.1,29.53,WSW,248,1.0,3.0,85,0.00,,,0.00,Wunderground v.1.15,2013-03-04 14:35:00,
2013-03-04 09:40:00,32.0,28.0,29.53,WSW,255,2.0,2.0,85,0.00,,,0.00,Wunderground v.1.15,2013-03-04 14:40:00,
2013-03-04 09:46:00,32.0,27.7,29.53,NNE,28,2.0,3.0,84,0.00,,,0.00,Wunderground v.1.15,2013-03-04 14:46:00,
2013-03-04 09:52:00,32.2,27.9,29.52,SSW,204,1.0,1.0,84,0.00,,,0.00,Wunderground v.1.15,2013-03-04 14:52:00,
2013-03-04 09:57:00,32.3,27.7,29.52,SSE,158,1.0,4.0,83,0.00,,,0.00,Wunderground v.1.15,2013-03-04 14:57:00,
2013-03-04 10:03:00,32.5,27.6,29.52,SSE,164,1.0,6.0,82,0.00,,,0.00,Wunderground v.1.15,2013-03-04 15:03:00,
2013-03-04 10:08:00,32.8,27.9,29.52,North,7,1.0,6.0,82,0.00,,,0.00,Wunderground v.1.15,2013-03-04 15:08:00,
2013-03-04 10:14:00,33.1,27.9,29.52,SW,219,1.0,5.0,81,0.00,,,0.00,Wunderground v.1.15,2013-03-04 15:14:00,
2013-03-04 10:19:00,33.3,27.5,29.52,NNE,22,2.0,6.0,79,0.00,,,0.00,Wunderground v.1.15,2013-03-04 15:19:00,
2013-03-04 10:24:00,33.7,27.6,29.52,SW,219,2.0,5.0,78,0.00,,,0.00,Wunderground v.1.15,2013-03-04 15:24:00,
2013-03-04 10:29:00,34.1,28.0,29.52,NNE,18,1.0,5.0,78,0.00,,,0.00,Wunderground v.1.15,2013-03-04 15:29:00,
2013-03-04 10:35:00,34.5,27.7,29.52,NE,56,2.0,5.0,76,0.00,,,0.00,Wunderground v.1.15,2013-03-04 15:35:00,
2013-03-04 10:41:00,34.8,27.7,29.52,SW,214,2.0,5.0,75,0.00,,,0.00,Wunderground v.1.15,2013-03-04 15:41:00,
2013-03-04 10:47:00,34.9,27.5,29.52,NE,39,1.0,5.0,74,0.00,,,0.00,Wunderground v.1.15,2013-03-04 15:47:00,
2013-03-04 10:52:00,35.0,27.2,29.52,SW,231,2.0,5.0,73,0.00,,,0.00,Wunderground v.1.15,2013-03-04 15:52:00,
2013-03-04 10:57:00,34.9,26.4,29.52,SW,223,2.0,5.0,71,0.00,,,0.00,Wunderground v.1.15,2013-03-04 15:57:00,
2013-03-04 11:02:00,34.5,26.4,29.52,WSW,253,3.0,4.0,72,0.00,,,0.00,Wunderground v.1.15,2013-03-04 16:02:00,
2013-03-04 11:08:00,34.3,26.2,29.52,East,82,3.0,4.0,72,0.00,,,0.00,Wunderground v.1.15,2013-03-04 16:08:00,
2013-03-04 11:13:00,34.2,26.4,29.52,NW,312,3.0,4.0,73,0.00,,,0.00,Wunderground v.1.15,2013-03-04 16:13:00,
2013-03-04 11:19:00,34.1,26.3,29.51,WSW,248,3.0,7.0,73,0.00,,,0.00,Wunderground v.1.15,2013-03-04 16:19:00,
2013-03-04 11:24:00,33.9,26.5,29.52,NW,319,4.0,5.0,74,0.00,,,0.00,Wunderground v.1.15,2013-03-04 16:24:00,
2013-03-04 11:29:00,33.8,26.7,29.51,SE,134,3.0,5.0,75,0.00,,,0.00,Wunderground v.1.15,2013-03-04 16:29:00,
2013-03-04 11:35:00,34.1,26.7,29.51,WSW,252,3.0,5.0,74,0.00,,,0.00,Wunderground v.1.15,2013-03-04 16:35:00,
2013-03-04 11:41:00,34.7,26.6,29.51,NW,315,3.0,5.0,72,0.00,,,0.00,Wunderground v.1.15,2013-03-04 16:41:00,
2013-03-04 11:47:00,35.6,26.8,29.50,North,355,3.0,7.0,70,0.00,,,0.00,Wunderground v.1.15,2013-03-04 16:47:00,
2013-03-04 11:53:00,36.1,26.2,29.50,WNW,294,3.0,6.0,67,0.00,,,0.00,Wunderground v.1.15,2013-03-04 16:53:00,
2013-03-04 11:59:00,36.6,26.3,29.50,NW,305,3.0,6.0,66,0.00,,,0.00,Wunderground v.1.15,2013-03-04 16:59:00,
2013-03-04 12:05:00,36.7,26.0,29.50,ENE,57,3.0,6.0,65,0.00,,,0.00,Wunderground v.1.15,2013-03-04 17:05:00,
2013-03-04 12:10:00,36.9,25.9,29.50,NNE,18,3.0,3.0,64,0.00,,,0.00,Wunderground v.1.15,2013-03-04 17:10:00,
2013-03-04 12:16:00,37.1,26.0,29.50,West,280,3.0,5.0,64,0.00,,,0.00,Wunderground v.1.15,2013-03-04 17:16:00,
2013-03-04 12:21:00,37.9,26.4,29.49,SSW,195,2.0,2.0,63,0.00,,,0.00,Wunderground v.1.15,2013-03-04 17:21:00,
2013-03-04 12:27:00,38.4,25.3,29.49,NE,40,2.0,11.0,59,0.00,,,0.00,Wunderground v.1.15,2013-03-04 17:27:00,
2013-03-04 12:32:00,38.1,25.4,29.49,WNW,284,3.0,5.0,60,0.00,,,0.00,Wunderground v.1.15,2013-03-04 17:32:00,
2013-03-04 12:37:00,38.1,25.4,29.49,WNW,283,4.0,12.0,60,0.00,,,0.00,Wunderground v.1.15,2013-03-04 17:37:00,
2013-03-04 12:43:00,37.9,25.6,29.49,SSW,211,4.0,6.0,61,0.00,,,0.00,Wunderground v.1.15,2013-03-04 17:43:00,
2013-03-04 12:48:00,37.2,25.0,29.49,West,261,5.0,7.0,61,0.00,,,0.00,Wunderground v.1.15,2013-03-04 17:48:00,
2013-03-04 12:54:00,37.1,25.3,29.50,WSW,243,4.0,5.0,62,0.00,,,0.00,Wunderground v.1.15,2013-03-04 17:54:00,
2013-03-04 12:59:00,36.6,25.6,29.50,NNE,18,4.0,12.0,64,0.00,,,0.00,Wunderground v.1.15,2013-03-04 17:59:00,
2013-03-04 13:04:00,36.0,26.1,29.50,North,351,4.0,10.0,67,0.00,,,0.00,Wunderground v.1.15,2013-03-04 18:04:00,
2013-03-04 13:10:00,35.7,26.5,29.50,NW,316,3.0,5.0,69,0.00,,,0.00,Wunderground v.1.15,2013-03-04 18:10:00,
2013-03-04 13:16:00,35.2,26.7,29.50,SW,217,3.0,5.0,71,0.00,,,0.00,Wunderground v.1.15,2013-03-04 18:16:00,
2013-03-04 13:21:00,34.7,27.3,29.50,SW,233,3.0,7.0,74,0.00,,,0.00,Wunderground v.1.15,2013-03-04 18:21:00,
2013-03-04 13:26:00,34.1,27.6,29.50,SW,234,3.0,7.0,77,0.00,,,0.00,Wunderground v.1.15,2013-03-04 18:26:00,
2013-03-04 13:30:00,33.7,27.9,29.50,WSW,252,3.0,5.0,79,0.00,,,0.00,Wunderground v.1.15,2013-03-04 18:30:00,
2013-03-04 13:31:00,33.7,27.9,29.50,West,281,3.0,5.0,79,0.00,,,0.00,Wunderground v.1.15,2013-03-04 18:31:00,
2013-03-04 13:33:00,33.5,28.0,29.51,WSW,239,3.0,5.0,80,0.00,,,0.00,Wunderground v.1.15,2013-03-04 18:33:00,
2013-03-04 13:34:00,33.5,28.0,29.51,NNE,30,3.0,5.0,80,0.00,,,0.00,Wunderground v.1.15,2013-03-04 18:34:00,
2013-03-04 13:39:00,33.2,28.0,29.50,NNE,32,3.0,8.0,81,0.00,,,0.00,Wunderground v.1.15,2013-03-04 18:39:00,
2013-03-04 13:45:00,33.0,28.1,29.51,North,8,3.0,4.0,82,0.00,,,0.00,Wunderground v.1.15,2013-03-04 18:45:00,
2013-03-04 13:50:00,33.0,27.8,29.50,SSW,194,3.0,3.0,81,0.00,,,0.00,Wunderground v.1.15,2013-03-04 18:50:00,
2013-03-04 13:55:00,33.2,28.0,29.50,NE,56,2.0,3.0,81,0.00,,,0.00,Wunderground v.1.15,2013-03-04 18:55:00,
2013-03-04 14:00:00,33.5,27.4,29.50,West,263,2.0,7.0,78,0.00,,,0.00,Wunderground v.1.15,2013-03-04 19:00:00,
2013-03-04 14:06:00,33.7,26.6,29.51,ENE,72,3.0,7.0,75,0.00,,,0.00,Wunderground v.1.15,2013-03-04 19:06:00,
2013-03-04 14:11:00,33.8,26.4,29.51,SW,222,2.0,3.0,74,0.00,,,0.00,Wunderground v.1.15,2013-03-04 19:11:00,
2013-03-04 14:16:00,33.7,26.3,29.51,WSW,242,3.0,9.0,74,0.00,,,0.00,Wunderground v.1.15,2013-03-04 19:16:00,
2013-03-04 14:22:00,33.6,26.2,29.51,North,9,3.0,3.0,74,0.00,,,0.00,Wunderground v.1.15,2013-03-04 19:22:00,
2013-03-04 14:27:00,33.7,26.6,29.51,West,269,3.0,3.0,75,0.00,,,0.00,Wunderground v.1.15,2013-03-04 19:27:00,
2013-03-04 14:33:00,33.5,26.4,29.51,NE,44,3.0,5.0,75,0.00,,,0.00,Wunderground v.1.15,2013-03-04 19:33:00,
2013-03-04 14:38:00,33.3,26.2,29.51,West,268,3.0,6.0,75,0.00,,,0.00,Wunderground v.1.15,2013-03-04 19:38:00,
2013-03-04 14:44:00,33.2,26.1,29.51,West,271,3.0,8.0,75,0.00,,,0.00,Wunderground v.1.15,2013-03-04 19:44:00,
2013-03-04 14:50:00,33.1,26.0,29.52,NNE,25,3.0,3.0,75,0.00,,,0.00,Wunderground v.1.15,2013-03-04 19:50:00,
2013-03-04 14:56:00,33.0,25.9,29.52,NE,48,4.0,7.0,75,0.00,,,0.00,Wunderground v.1.15,2013-03-04 19:56:00,
2013-03-04 15:02:00,32.9,25.8,29.52,SSW,198,4.0,6.0,75,0.00,,,0.00,Wunderground v.1.15,2013-03-04 20:02:00,
2013-03-04 15:07:00,32.8,25.7,29.52,East,89,4.0,7.0,75,0.00,,,0.00,Wunderground v.1.15,2013-03-04 20:07:00,
2013-03-04 15:13:00,32.7,25.6,29.52,WNW,303,4.0,9.0,75,0.00,,,0.00,Wunderground v.1.15,2013-03-04 20:13:00,
2013-03-04 15:18:00,32.6,25.6,29.52,NE,48,4.0,9.0,75,0.00,,,0.00,Wunderground v.1.15,2013-03-04 20:18:00,
2013-03-04 15:23:00,32.4,25.7,29.53,ESE,108,4.0,5.0,76,0.00,,,0.00,Wunderground v.1.15,2013-03-04 20:23:00,
2013-03-04 15:29:00,32.1,25.7,29.53,ENE,63,4.0,8.0,77,0.00,,,0.00,Wunderground v.1.15,2013-03-04 20:29:00,
2013-03-04 15:35:00,31.7,26.2,29.53,NNW,328,4.0,6.0,80,0.00,,,0.00,Wunderground v.1.15,2013-03-04 20:35:00,
2013-03-04 15:41:00,31.3,26.4,29.53,ENE,77,3.0,4.0,82,0.00,,,0.00,Wunderground v.1.15,2013-03-04 20:41:00,
2013-03-04 15:46:00,31.2,26.3,29.53,NNE,13,3.0,5.0,82,0.00,,,0.00,Wunderground v.1.15,2013-03-04 20:46:00,
2013-03-04 15:52:00,31.2,26.0,29.53,West,262,3.0,4.0,81,0.00,,,0.00,Wunderground v.1.15,2013-03-04 20:52:00,
2013-03-04 15:58:00,31.3,26.1,29.53,WSW,254,2.0,5.0,81,0.00,,,0.00,Wunderground v.1.15,2013-03-04 20:58:00,
2013-03-04 16:03:00,31.5,25.7,29.53,NW,312,2.0,3.0,79,0.00,,,0.00,Wunderground v.1.15,2013-03-04 21:03:00,
2013-03-04 16:09:00,31.6,25.5,29.53,WSW,241,2.0,6.0,78,0.00,,,0.00,Wunderground v.1.15,2013-03-04 21:09:00,
2013-03-04 16:14:00,31.7,25.3,29.53,SW,217,3.0,6.0,77,0.00,,,0.00,Wunderground v.1.15,2013-03-04 21:14:00,
2013-03-04 16:20:00,31.8,25.1,29.53,NNW,331,3.0,3.0,76,0.00,,,0.00,Wunderground v.1.15,2013-03-04 21:20:00,
2013-03-04 16:26:00,31.8,24.5,29.54,SSE,154,2.0,6.0,74,0.00,,,0.00,Wunderground v.1.15,2013-03-04 21:26:00,
2013-03-04 16:31:00,31.9,24.6,29.54,WSW,245,3.0,3.0,74,0.00,,,0.00,Wunderground v.1.15,2013-03-04 21:31:00,
2013-03-04 16:37:00,31.9,24.2,29.54,NNW,336,3.0,7.0,73,0.00,,,0.00,Wunderground v.1.15,2013-03-04 21:37:00,
2013-03-04 16:42:00,31.9,23.9,29.54,NW,307,3.0,6.0,72,0.00,,,0.00,Wunderground v.1.15,2013-03-04 21:42:00,
2013-03-04 16:47:00,32.0,24.0,29.54,SSW,195,3.0,6.0,72,0.00,,,0.00,Wunderground v.1.15,2013-03-04 21:47:00,
2013-03-04 16:53:00,32.0,23.7,29.55,NNW,344,3.0,5.0,71,0.00,,,0.00,Wunderground v.1.15,2013-03-04 21:53:00,
2013-03-04 16:58:00,32.0,23.7,29.55,SW,222,3.0,9.0,71,0.00,,,0.00,Wunderground v.1.15,2013-03-04 21:58:00,
2013-03-04 17:04:00,32.0,23.3,29.55,WNW,297,4.0,5.0,70,0.00,,,0.00,Wunderground v.1.15,2013-03-04 22:04:00,
2013-03-04 17:09:00,31.9,23.6,29.55,SE,131,3.0,5.0,71,0.00,,,0.00,Wunderground v.1.15,2013-03-04 22:09:00,
2013-03-04 17:15:00,32.0,23.3,29.55,SE,143,3.0,5.0,70,0.00,,,0.00,Wunderground v.1.15,2013-03-04 22:15:00,
2013-03-04 17:21:00,32.0,23.3,29.56,WSW,249,2.0,3.0,70,0.00,,,0.00,Wunderground v.1.15,2013-03-04 22:21:00,
2013-03-04 17:27:00,31.9,23.2,29.56,SSW,207,1.0,3.0,70,0.00,,,0.00,Wunderground v.1.15,2013-03-04 22:27:00,
2013-03-04 17:32:00,31.9,22.9,29.56,North,7,2.0,2.0,69,0.00,,,0.00,Wunderground v.1.15,2013-03-04 22:32:00,
2013-03-04 17:37:00,31.9,22.9,29.56,NNE,13,2.0,2.0,69,0.00,,,0.00,Wunderground v.1.15,2013-03-04 22:37:00,
2013-03-04 17:42:00,31.8,22.8,29.57,North,1,2.0,4.0,69,0.00,,,0.00,Wunderground v.1.15,2013-03-04 22:42:00,
2013-03-04 17:48:00,31.8,22.8,29.57,NNW,331,3.0,4.0,69,0.00,,,0.00,Wunderground v.1.15,2013-03-04 22:48:00,
2013-03-04 17:53:00,31.8,22.8,29.57,West,270,3.0,4.0,69,0.00,,,0.00,Wunderground v.1.15,2013-03-04 22:53:00,
2013-03-04 17:59:00,31.7,22.7,29.57,SW,217,2.0,5.0,69,0.00,,,0.00,Wunderground v.1.15,2013-03-04 22:59:00,
2013-03-04 18:04:00,31.5,22.5,29.57,SW,229,2.0,10.0,69,0.00,,,0.00,Wunderground v.1.15,2013-03-04 23:04:00,
2013-03-04 18:10:00,31.4,22.4,29.58,ESE,122,3.0,3.0,69,0.00,,,0.00,Wunderground v.1.15,2013-03-04 23:10:00,
2013-03-04 18:16:00,31.1,22.5,29.58,ENE,72,2.0,6.0,70,0.00,,,0.00,Wunderground v.1.15,2013-03-04 23:16:00,
2013-03-04 18:21:00,31.0,22.4,29.58,ESE,108,2.0,2.0,70,0.00,,,0.00,Wunderground v.1.15,2013-03-04 23:21:00,
2013-03-04 18:27:00,31.0,22.7,29.59,SSW,204,2.0,4.0,71,0.00,,,0.00,Wunderground v.1.15,2013-03-04 23:27:00,
2013-03-04 18:32:00,30.9,22.3,29.58,NE,43,2.0,6.0,70,0.00,,,0.00,Wunderground v.1.15,2013-03-04 23:32:00,
2013-03-04 18:38:00,30.9,22.3,29.58,WNW,290,2.0,6.0,70,0.00,,,0.00,Wunderground v.1.15,2013-03-04 23:38:00,
2013-03-04 18:43:00,30.9,22.6,29.59,WNW,302,2.0,3.0,71,0.00,,,0.00,Wunderground v.1.15,2013-03-04 23:43:00,
2013-03-04 18:48:00,30.8,22.5,29.59,SW,236,2.0,3.0,71,0.00,,,0.00,Wunderground v.1.15,2013-03-04 23:48:00,
2013-03-04 18:54:00,30.8,22.5,29.59,ENE,72,2.0,3.0,71,0.00,,,0.00,Wunderground v.1.15,2013-03-04 23:54:00,
2013-03-04 19:00:00,30.9,22.6,29.59,SE,134,1.0,2.0,71,0.00,,,0.00,Wunderground v.1.15,2013-03-05 00:00:00,
2013-03-04 19:06:00,30.9,22.6,29.59,South,183,2.0,3.0,71,0.00,,,0.00,Wunderground v.1.15,2013-03-05 00:06:00,
2013-03-04 19:11:00,31.0,22.7,29.60,ENE,71,3.0,3.0,71,0.00,,,0.00,Wunderground v.1.15,2013-03-05 00:11:00,
2013-03-04 19:16:00,31.1,22.5,29.60,ENE,57,2.0,11.0,70,0.00,,,0.00,Wunderground v.1.15,2013-03-05 00:16:00,
2013-03-04 19:22:00,31.2,22.5,29.60,NE,38,3.0,3.0,70,0.00,,,0.00,Wunderground v.1.15,2013-03-05 00:22:00,
2013-03-04 19:27:00,31.0,22.4,29.60,NE,52,2.0,5.0,70,0.00,,,0.00,Wunderground v.1.15,2013-03-05 00:27:00,
2013-03-04 19:33:00,30.8,22.2,29.61,NE,56,2.0,2.0,70,0.00,,,0.00,Wunderground v.1.15,2013-03-05 00:33:00,
2013-03-04 19:38:00,30.7,22.4,29.61,NE,35,2.0,9.0,71,0.00,,,0.00,Wunderground v.1.15,2013-03-05 00:38:00,
2013-03-04 19:44:00,30.7,22.1,29.61,NW,309,3.0,4.0,70,0.00,,,0.00,Wunderground v.1.15,2013-03-05 00:44:00,
2013-03-04 19:50:00,30.8,22.2,29.61,SW,232,3.0,3.0,70,0.00,,,0.00,Wunderground v.1.15,2013-03-05 00:50:00,
2013-03-04 19:55:00,30.8,22.2,29.61,West,275,3.0,3.0,70,0.00,,,0.00,Wunderground v.1.15,2013-03-05 00:55:00,
2013-03-04 20:01:00,30.9,22.3,29.62,NE,56,3.0,3.0,70,0.00,,,0.00,Wunderground v.1.15,2013-03-05 01:01:00,
2013-03-04 20:07:00,30.9,22.3,29.62,NE,40,2.0,4.0,70,0.00,,,0.00,Wunderground v.1.15,2013-03-05 01:07:00,
2013-03-04 20:13:00,30.8,22.2,29.63,NNE,24,2.0,3.0,70,0.00,,,0.00,Wunderground v.1.15,2013-03-05 01:13:00,
2013-03-04 20:19:00,30.8,22.2,29.63,South,184,3.0,7.0,70,0.00,,,0.00,Wunderground v.1.15,2013-03-05 01:19:00,
2013-03-04 20:25:00,30.8,22.5,29.63,East,86,2.0,2.0,71,0.00,,,0.00,Wunderground v.1.15,2013-03-05 01:25:00,
2013-03-04 20:31:00,30.8,22.5,29.63,NW,315,2.0,5.0,71,0.00,,,0.00,Wunderground v.1.15,2013-03-05 01:31:00,
2013-03-04 20:37:00,30.9,22.6,29.63,ENE,61,3.0,7.0,71,0.00,,,0.00,Wunderground v.1.15,2013-03-05 01:37:00,
2013-03-04 20:42:00,31.0,22.7,29.64,WSW,253,3.0,4.0,71,0.00,,,0.00,Wunderground v.1.15,2013-03-05 01:42:00,
2013-03-04 20:48:00,31.0,22.7,29.64,SW,233,3.0,7.0,71,0.00,,,0.00,Wunderground v.1.15,2013-03-05 01:48:00,
2013-03-04 20:53:00,31.1,22.8,29.64,SW,214,4.0,4.0,71,0.00,,,0.00,Wunderground v.1.15,2013-03-05 01:53:00,
2013-03-04 20:58:00,31.2,22.9,29.64,North,8,4.0,5.0,71,0.00,,,0.00,Wunderground v.1.15,2013-03-05 01:58:00,
2013-03-04 21:03:00,31.2,22.9,29.64,NNW,338,3.0,4.0,71,0.00,,,0.00,Wunderground v.1.15,2013-03-05 02:03:00,
2013-03-04 21:09:00,31.2,22.9,29.64,SSW,208,3.0,5.0,71,0.00,,,0.00,Wunderground v.1.15,2013-03-05 02:09:00,
2013-03-04 21:14:00,31.2,22.9,29.65,WSW,255,3.0,7.0,71,0.00,,,0.00,Wunderground v.1.15,2013-03-05 02:14:00,
2013-03-04 21:19:00,31.3,23.3,29.65,East,94,3.0,9.0,72,0.00,,,0.00,Wunderground v.1.15,2013-03-05 02:19:00,
2013-03-04 21:26:00,31.2,23.2,29.65,SE,143,3.0,5.0,72,0.00,,,0.00,Wunderground v.1.15,2013-03-05 02:26:00,
2013-03-04 21:31:00,31.2,23.2,29.65,North,356,3.0,6.0,72,0.00,,,0.00,Wunderground v.1.15,2013-03-05 02:31:00,
2013-03-04 21:36:00,31.2,23.2,29.65,SSW,205,3.0,6.0,72,0.00,,,0.00,Wunderground v.1.15,2013-03-05 02:36:00,
2013-03-04 21:41:00,31.1,23.1,29.65,NE,37,3.0,4.0,72,0.00,,,0.00,Wunderground v.1.15,2013-03-05 02:41:00,
2013-03-04 21:47:00,31.2,23.2,29.66,NW,312,4.0,7.0,72,0.00,,,0.00,Wunderground v.1.15,2013-03-05 02:47:00,
2013-03-04 21:52:00,31.1,23.5,29.66,ESE,115,4.0,6.0,73,0.00,,,0.00,Wunderground v.1.15,2013-03-05 02:52:00,
2013-03-04 21:58:00,31.0,23.4,29.66,SW,229,3.0,6.0,73,0.00,,,0.00,Wunderground v.1.15,2013-03-05 02:58:00,
2013-03-04 22:04:00,31.1,23.1,29.66,NE,44,3.0,4.0,72,0.00,,,0.00,Wunderground v.1.15,2013-03-05 03:04:00,
2013-03-04 22:09:00,31.2,23.2,29.66,SSW,209,3.0,4.0,72,0.00,,,0.00,Wunderground v.1.15,2013-03-05 03:09:00,
2013-03-04 22:15:00,31.2,23.2,29.66,NNE,32,3.0,6.0,72,0.00,,,0.00,Wunderground v.1.15,2013-03-05 03:15:00,
2013-03-04 22:20:00,31.2,23.2,29.66,NNE,20,3.0,7.0,72,0.00,,,0.00,Wunderground v.1.15,2013-03-05 03:20:00,
2013-03-04 22:25:00,31.3,23.3,29.66,North,349,3.0,7.0,72,0.00,,,0.00,Wunderground v.1.15,2013-03-05 03:25:00,
2013-03-04 22:31:00,31.3,23.3,29.66,NNE,17,3.0,4.0,72,0.00,,,0.00,Wunderground v.1.15,2013-03-05 03:31:00,
2013-03-04 22:36:00,31.4,23.1,29.66,NW,316,4.0,9.0,71,0.00,,,0.00,Wunderground v.1.15,2013-03-05 03:36:00,
2013-03-04 22:42:00,31.4,23.1,29.66,ESE,104,4.0,4.0,71,0.00,,,0.00,Wunderground v.1.15,2013-03-05 03:42:00,
2013-03-04 22:47:00,31.4,23.1,29.67,NE,52,3.0,7.0,71,0.00,,,0.00,Wunderground v.1.15,2013-03-05 03:47:00,
2013-03-04 22:53:00,31.4,23.1,29.67,WNW,285,3.0,3.0,71,0.00,,,0.00,Wunderground v.1.15,2013-03-05 03:53:00,
2013-03-04 22:58:00,31.4,23.1,29.67,NNE,27,3.0,6.0,71,0.00,,,0.00,Wunderground v.1.15,2013-03-05 03:58:00,
2013-03-04 23:03:00,31.4,23.1,29.67,WNW,299,2.0,6.0,71,0.00,,,0.00,Wunderground v.1.15,2013-03-05 04:03:00,
2013-03-04 23:09:00,31.4,23.1,29.67,SSE,165,3.0,6.0,71,0.00,,,0.00,Wunderground v.1.15,2013-03-05 04:09:00,
2013-03-04 23:14:00,31.4,23.1,29.68,NW,309,3.0,5.0,71,0.00,,,0.00,Wunderground v.1.15,2013-03-05 04:14:00,
2013-03-04 23:20:00,31.5,23.2,29.67,ENE,65,2.0,2.0,71,0.00,,,0.00,Wunderground v.1.15,2013-03-05 04:20:00,
2013-03-04 23:25:00,31.5,23.2,29.67,NW,315,3.0,6.0,71,0.00,,,0.00,Wunderground v.1.15,2013-03-05 04:25:00,
2013-03-04 23:31:00,31.6,23.3,29.68,South,184,3.0,4.0,71,0.00,,,0.00,Wunderground v.1.15,2013-03-05 04:31:00,
2013-03-04 23:36:00,31.6,23.3,29.68,NE,53,3.0,5.0,71,0.00,,,0.00,Wunderground v.1.15,2013-03-05 04:36:00,
2013-03-04 23:41:00,31.6,23.3,29.68,NNE,24,4.0,4.0,71,0.00,,,0.00,Wunderground v.1.15,2013-03-05 04:41:00,
2013-03-04 23:47:00,31.5,23.2,29.68,North,1,4.0,6.0,71,0.00,,,0.00,Wunderground v.1.15,2013-03-05 04:47:00,
2013-03-04 23:52:00,31.4,23.1,29.68,NE,37,3.0,4.0,71,0.00,,,0.00,Wunderground v.1.15,2013-03-05 04:52:00,
2013-03-04 23:57:00,31.3,23.3,29.68,NE,44,3.0,4.0,72,0.00,,,0.00,Wunderground v.1.15,2013-03-05 04:57:00,